FW8685 Weather Reports


time (UTC)temp
F
wind
direction
speed
knots
gust
knots
rain 1hr
in
rain 24hr
in
rain mn
in
humidity
%
barometer
mb
20260509230522 85 189 7.0 13.0 0.00 0.00 0.00 27 1005.8
20260509230041 85 136 7.0 13.0 0.00 0.00 0.00 26 1005.8
20260509225522 85 159 8.7 12.2 0.00 0.00 0.00 25 1005.8
20260509225022 85 179 7.0 11.3 0.00 0.00 0.00 28 1005.8
20260509224536 85 151 6.1 13.9 0.00 0.00 0.00 27 1005.7
20260509224021 86 158 7.8 13.9 0.00 0.00 0.00 27 1005.8
20260509223523 86 153 7.0 13.9 0.00 0.00 0.00 26 1005.8
20260509223038 86 155 4.3 12.2 0.00 0.00 0.00 26 1005.8
20260509222520 86 164 6.1 13.9 0.00 0.00 0.00 24 1005.6
20260509222023 86 188 5.2 14.8 0.00 0.00 0.00 26 1005.6
20260509221541 86 163 7.0 14.8 0.00 0.00 0.00 26 1005.6
20260509221024 86 203 7.0 13.9 0.00 0.00 0.00 26 1005.5
20260509220525 86 165 7.0 13.9 0.00 0.00 0.00 25 1005.5
20260509220038 86 155 7.8 13.9 0.00 0.00 0.00 25 1005.4
20260509215523 87 235 3.5 15.6 0.00 0.00 0.00 22 1005.5
20260509215022 87 161 7.8 15.6 0.00 0.00 0.00 24 1005.5
20260509214539 87 184 4.3 12.2 0.00 0.00 0.00 27 1005.6
20260509214020 86 157 4.3 12.2 0.00 0.00 0.00 26 1005.6
20260509213522 86 151 3.5 11.3 0.00 0.00 0.00 25 1005.6
20260509213038 87 185 6.1 10.4 0.00 0.00 0.00 26 1005.7
20260509212524 87 150 4.3 10.4 0.00 0.00 0.00 26 1005.8
20260509212024 87 126 6.1 10.4 0.00 0.00 0.00 24 1005.8
20260509211539 87 158 4.3 7.8 0.00 0.00 0.00 25 1005.9
20260509211021 87 267 3.5 9.6 0.00 0.00 0.00 23 1005.8
20260509210521 87 135 2.6 10.4 0.00 0.00 0.00 25 1005.9
20260509210043 87 188 6.1 10.4 0.00 0.00 0.00 24 1006.1
20260509205520 87 161 2.6 8.7 0.00 0.00 0.00 24 1006.1
20260509205021 87 190 2.6 10.4 0.00 0.00 0.00 24 1006.1
20260509204541 86 161 4.3 10.4 0.00 0.00 0.00 24 1006.1
20260509204021 85 153 0.9 10.4 0.00 0.00 0.00 24 1006.2
20260509203520 86 155 5.2 15.6 0.00 0.00 0.00 26 1006.5
20260509203037 86 151 5.2 15.6 0.00 0.00 0.00 23 1006.5
20260509202520 87 157 9.6 12.2 0.00 0.00 0.00 24 1006.5
20260509202023 87 133 7.0 12.2 0.00 0.00 0.00 27 1006.5
20260509201540 86 186 7.0 12.2 0.00 0.00 0.00 30 1006.6
20260509201022 85 183 4.3 12.2 0.00 0.00 0.00 25 1006.6
20260509200521 86 139 4.3 12.2 0.00 0.00 0.00 24 1006.8
20260509200039 87 154 5.2 12.2 0.00 0.00 0.00 24 1006.8
20260509195524 88 171 5.2 12.2 0.00 0.00 0.00 23 1006.8
20260509195021 87 188 5.2 11.3 0.00 0.00 0.00 25 1006.9
20260509194551 87 218 3.5 12.2 0.00 0.00 0.00 21 1007.0
20260509194021 88 151 7.8 13.0 0.00 0.00 0.00 25 1007.0
20260509193522 87 190 7.8 13.0 0.00 0.00 0.00 25 1007.1
20260509193036 86 133 1.7 7.8 0.00 0.00 0.00 26 1007.2
20260509192522 86 53 1.7 8.7 0.00 0.00 0.00 22 1007.2
20260509192021 86 178 3.5 9.6 0.00 0.00 0.00 22 1007.3
20260509191535 86 220 5.2 9.6 0.00 0.00 0.00 21 1007.2
20260509191023 86 207 3.5 9.6 0.00 0.00 0.00 24 1007.4
20260509190520 86 257 4.3 9.6 0.00 0.00 0.00 24 1007.4
20260509190040 86 263 2.6 7.8 0.00 0.00 0.00 23 1007.4
20260509185521 86 313 3.5 7.8 0.00 0.00 0.00 24 1007.5
20260509185022 86 299 4.3 8.7 0.00 0.00 0.00 24 1007.5
20260509184538 85 296 4.3 10.4 0.00 0.00 0.00 26 1007.5
20260509184020 85 234 4.3 10.4 0.00 0.00 0.00 24 1007.6
20260509183522 85 236 3.5 7.8 0.00 0.00 0.00 23 1007.6
20260509183038 85 264 2.6 13.0 0.00 0.00 0.00 24 1007.7
20260509182521 85 261 5.2 13.0 0.00 0.00 0.00 25 1007.8
20260509182022 85 232 4.3 11.3 0.00 0.00 0.00 26 1007.9
20260509181538 85 197 7.0 13.9 0.00 0.00 0.00 25 1008.0
20260509181021 84 239 7.8 13.9 0.00 0.00 0.00 25 1008.0
20260509180522 84 230 2.6 12.2 0.00 0.00 0.00 27 1008.1
20260509180050 85 200 6.1 13.0 0.00 0.00 0.00 29 1008.1
20260509175522 85 182 7.0 13.0 0.00 0.00 0.00 28 1008.2
20260509175022 84 232 5.2 12.2 0.00 0.00 0.00 27 1008.3
20260509174540 84 224 4.3 10.4 0.00 0.00 0.00 24 1008.3
20260509174021 84 211 4.3 10.4 0.00 0.00 0.00 25 1008.3
20260509173520 84 186 6.1 11.3 0.00 0.00 0.00 27 1008.3
20260509173053 84 274 5.2 12.2 0.00 0.00 0.00 26 1008.3
20260509172525 84 258 6.1 14.8 0.00 0.00 0.00 27 1008.4
20260509172023 84 297 7.0 14.8 0.00 0.00 0.00 26 1008.5
20260509171541 83 256 7.8 13.9 0.00 0.00 0.00 28 1008.5
20260509171020 83 234 7.8 13.9 0.00 0.00 0.00 26 1008.5
20260509170520 82 254 7.0 13.0 0.00 0.00 0.00 26 1008.6
20260509170038 82 254 7.8 14.8 0.00 0.00 0.00 26 1008.7
20260509165521 82 276 8.7 14.8 0.00 0.00 0.00 27 1008.6
20260509165021 82 300 7.8 13.0 0.00 0.00 0.00 27 1008.6
20260509164537 82 256 5.2 13.9 0.00 0.00 0.00 29 1008.6
20260509164021 81 257 7.0 15.6 0.00 0.00 0.00 30 1008.7
20260509163525 82 273 8.7 15.6 0.00 0.00 0.00 28 1008.7
20260509163037 81 226 6.1 12.2 0.00 0.00 0.00 33 1008.8
20260509162521 81 247 4.3 12.2 0.00 0.00 0.00 33 1008.9
20260509162050 81 238 4.3 11.3 0.00 0.00 0.00 36 1008.9
20260509161552 80 249 6.1 11.3 0.00 0.00 0.00 35 1008.9
20260509161022 80 280 6.1 11.3 0.00 0.00 0.00 38 1008.9
20260509160523 79 219 6.1 9.6 0.00 0.00 0.00 38 1008.8
20260509160039 80 229 4.3 9.6 0.00 0.00 0.00 38 1008.8
20260509155522 80 208 6.1 9.6 0.00 0.00 0.00 39 1008.7
20260509155022 79 211 4.3 9.6 0.00 0.00 0.00 40 1008.6
20260509154545 78 279 5.2 12.2 0.00 0.00 0.00 38 1008.7
20260509154022 78 221 7.0 12.2 0.00 0.00 0.00 41 1008.7
20260509153521 77 238 7.8 12.2 0.00 0.00 0.00 38 1008.7
20260509153052 77 236 5.2 11.3 0.00 0.00 0.00 42 1008.6
20260509152521 76 257 7.8 11.3 0.00 0.00 0.00 43 1008.6
20260509152021 76 259 5.2 10.4 0.00 0.00 0.00 44 1008.6
20260509151537 75 236 5.2 12.2 0.00 0.00 0.00 44 1008.6
20260509151021 75 240 7.0 12.2 0.00 0.00 0.00 44 1008.6
20260509150521 74 193 5.2 12.2 0.00 0.00 0.00 47 1008.6
20260509150037 73 221 4.3 8.7 0.00 0.00 0.00 51 1008.5
20260509145523 72 236 2.6 8.7 0.00 0.00 0.00 52 1008.5
20260509145021 71 270 4.3 8.7 0.00 0.00 0.00 52 1008.4
20260509144544 71 240 6.1 10.4 0.00 0.00 0.00 54 1008.5
20260509144021 71 225 5.2 11.3 0.00 0.00 0.00 55 1008.6
20260509143521 70 255 5.2 11.3 0.00 0.00 0.00 57 1008.6
20260509143040 69 220 3.5 7.0 0.00 0.00 0.00 59 1008.5
20260509142520 68 247 2.6 8.7 0.00 0.00 0.00 61 1008.4
20260509142020 67 0 3.5 8.7 0.00 0.00 0.00 64 1008.3
20260509141541 66 249 2.6 6.1 0.00 0.00 0.00 68 1008.3
20260509141023 65 250 1.7 6.1 0.00 0.00 0.00 70 1008.3
20260509140521 64 249 3.5 7.0 0.00 0.00 0.00 72 1008.3
20260509140052 63 242 1.7 7.0 0.00 0.00 0.00 76 1008.3
20260509135521 62 234 3.5 7.0 0.00 0.00 0.00 81 1008.4
20260509135021 61 249 1.7 7.0 0.00 0.00 0.00 85 1008.3
20260509134538 60 199 3.5 7.0 0.00 0.00 0.00 88 1008.5
20260509134023 59 178 0.9 3.5 0.00 0.00 0.00 90 1008.5
20260509133521 58 221 0.9 4.3 0.00 0.00 0.00 91 1008.6
20260509133039 57 237 0.9 4.3 0.00 0.00 0.00 92 1008.6
20260509132522 56 241 2.6 4.3 0.00 0.00 0.00 92 1008.6
20260509132022 55 251 1.7 3.5 0.00 0.00 0.00 93 1008.6
20260509131537 55 247 0.9 2.6 0.00 0.00 0.00 93 1008.5
20260509131024 54 0 0.0 2.6 0.00 0.00 0.00 93 1008.4
20260509130521 53 236 0.0 2.6 0.00 0.00 0.00 93 1008.4
20260509130037 53 0 0.9 3.5 0.00 0.00 0.00 93 1008.3
20260509125522 53 162 0.0 3.5 0.00 0.00 0.00 94 1008.3
20260509125020 52 162 0.9 5.2 0.00 0.00 0.00 94 1008.3
20260509124544 51 0 0.0 5.2 0.00 0.00 0.00 94 1008.2
20260509124021 51 162 3.5 5.2 0.00 0.00 0.00 94 1008.2
20260509123521 50 0 0.0 0.0 0.00 0.00 0.00 93 1008.1
20260509123039 50 0 0.0 0.9 0.00 0.00 0.00 93 1008.0
20260509122521 49 0 0.0 1.7 0.00 0.00 0.00 93 1007.9
20260509122021 49 0 0.0 2.6 0.00 0.00 0.00 93 1007.9
20260509121537 48 242 0.9 2.6 0.00 0.00 0.00 93 1007.8
20260509121021 48 242 1.7 2.6 0.00 0.00 0.00 93 1008.0
20260509120521 48 194 0.9 2.6 0.00 0.00 0.00 92 1007.9
20260509120040 48 194 0.9 2.6 0.00 0.00 0.00 92 1007.8
20260509115520 48 192 1.7 2.6 0.00 0.00 0.00 92 1007.8
20260509115021 48 192 0.9 3.5 0.00 0.00 0.00 92 1007.8
20260509114538 48 192 1.7 3.5 0.00 0.00 0.00 92 1007.8
20260509114021 48 192 2.6 3.5 0.00 0.00 0.00 92 1007.6
20260509113521 48 257 1.7 2.6 0.00 0.00 0.00 92 1007.6
20260509113038 48 257 0.9 2.6 0.00 0.00 0.00 92 1007.6
20260509112523 48 257 0.0 1.7 0.00 0.00 0.00 92 1007.5
20260509112021 48 0 0.0 1.7 0.00 0.00 0.00 92 1007.5
20260509111538 47 0 0.0 1.7 0.00 0.00 0.00 92 1007.4
20260509111021 47 257 0.0 1.7 0.00 0.00 0.00 92 1007.3
20260509110522 47 0 0.0 2.6 0.00 0.00 0.00 92 1007.4
20260509110037 47 257 0.0 2.6 0.00 0.00 0.00 92 1007.4
20260509105522 47 257 0.9 3.5 0.00 0.00 0.00 91 1007.5
20260509105021 47 258 0.9 5.2 0.00 0.00 0.00 91 1007.5
20260509104541 47 269 1.7 5.2 0.00 0.00 0.00 91 1007.6
20260509104020 47 251 2.6 5.2 0.00 0.00 0.00 91 1007.6
20260509103524 47 253 2.6 5.2 0.00 0.00 0.00 91 1007.6
20260509103046 47 298 1.7 5.2 0.00 0.00 0.00 91 1007.5
20260509102524 47 292 1.7 5.2 0.00 0.00 0.00 91 1007.5
20260509102021 46 273 2.6 5.2 0.00 0.00 0.00 90 1007.4
20260509101540 46 252 2.6 5.2 0.00 0.00 0.00 90 1007.5
20260509101022 47 259 1.7 3.5 0.00 0.00 0.00 90 1007.6
20260509100521 47 283 1.7 3.5 0.00 0.00 0.00 90 1007.6
20260509100038 47 284 1.7 2.6 0.00 0.00 0.00 90 1007.6
20260509095522 47 225 0.9 2.6 0.00 0.00 0.00 90 1007.6
20260509095024 47 223 0.9 2.6 0.00 0.00 0.00 90 1007.5
20260509094543 48 224 0.9 2.6 0.00 0.00 0.00 90 1007.5
20260509094021 48 224 0.0 2.6 0.00 0.00 0.00 90 1007.5
20260509093521 48 0 0.9 2.6 0.00 0.00 0.00 90 1007.6
20260509093040 48 223 0.9 2.6 0.00 0.00 0.00 90 1007.5
20260509092521 48 223 1.7 3.5 0.00 0.00 0.00 90 1007.6
20260509092021 48 224 2.6 3.5 0.00 0.00 0.00 90 1007.6
20260509091547 49 223 1.7 3.5 0.00 0.00 0.00 90 1007.6
20260509091023 49 223 1.7 3.5 0.00 0.00 0.00 90 1007.7
20260509090521 49 223 1.7 2.6 0.00 0.00 0.00 90 1007.7
20260509090051 49 224 1.7 3.5 0.00 0.00 0.00 90 1007.6
20260509085521 48 224 0.9 3.5 0.00 0.00 0.00 90 1007.6
20260509085020 48 227 1.7 3.5 0.00 0.00 0.00 90 1007.5
20260509084541 48 236 1.7 3.5 0.00 0.00 0.00 90 1007.5
20260509084022 49 238 1.7 3.5 0.00 0.00 0.00 90 1007.6
20260509083521 49 229 1.7 3.5 0.00 0.00 0.00 90 1007.6
20260509083041 49 206 1.7 2.6 0.00 0.00 0.00 90 1007.7
20260509082521 49 205 1.7 2.6 0.00 0.00 0.00 90 1007.7
20260509082023 49 205 0.9 2.6 0.00 0.00 0.00 90 1007.7
20260509081538 48 205 0.9 3.5 0.00 0.00 0.00 90 1007.7
20260509081023 48 205 1.7 3.5 0.00 0.00 0.00 89 1007.7
20260509080524 48 204 2.6 3.5 0.00 0.00 0.00 89 1007.7
20260509080045 48 202 2.6 3.5 0.00 0.00 0.00 89 1007.6
20260509075521 49 215 2.6 3.5 0.00 0.00 0.00 89 1007.7
20260509075022 49 188 1.7 3.5 0.00 0.00 0.00 89 1007.8
20260509074553 49 188 1.7 3.5 0.00 0.00 0.00 89 1007.7
20260509074023 49 188 1.7 3.5 0.00 0.00 0.00 89 1007.6
20260509073522 49 196 2.6 3.5 0.00 0.00 0.00 89 1007.6
20260509073058 48 186 1.7 4.3 0.00 0.00 0.00 89 1007.6
20260509072521 48 204 2.6 4.3 0.00 0.00 0.00 88 1007.6
20260509072021 48 199 2.6 4.3 0.00 0.00 0.00 88 1007.7
20260509071542 48 197 2.6 4.3 0.00 0.00 0.00 87 1007.6
20260509071022 48 207 2.6 4.3 0.00 0.00 0.00 87 1007.5
20260509070522 48 217 2.6 4.3 0.00 0.00 0.00 86 1007.6
20260509070041 48 217 1.7 4.3 0.00 0.00 0.00 86 1007.7
20260509065521 48 209 2.6 5.2 0.00 0.00 0.00 86 1007.7
20260509065021 48 193 3.5 5.2 0.00 0.00 0.00 86 1007.7
20260509064539 48 180 2.6 6.1 0.00 0.00 0.00 85 1007.6
20260509064024 48 186 3.5 6.1 0.00 0.00 0.00 84 1007.6
20260509063522 48 197 3.5 4.3 0.00 0.00 0.00 84 1007.6
20260509063053 49 192 2.6 4.3 0.00 0.00 0.00 84 1007.7
20260509062526 49 171 3.5 4.3 0.00 0.00 0.00 84 1007.7
20260509062021 49 170 2.6 3.5 0.00 0.00 0.00 84 1007.6
20260509061538 49 170 2.6 3.5 0.00 0.00 0.00 84 1007.6
20260509061025 49 0 0.0 0.0 0.00 0.00 0.00 84 1007.5
20260509060524 50 0 0.0 1.7 0.00 0.00 0.00 84 1007.5
20260509060101 50 0 0.0 1.7 0.00 0.00 0.00 84 1007.4
20260509055521 50 171 0.9 3.5 0.00 0.00 0.00 83 1007.4
20260509055025 50 0 0.9 3.5 0.00 0.00 0.00 83 1007.5
20260509054539 50 171 0.9 3.5 0.00 0.00 0.00 83 1007.5
20260509054021 50 171 0.0 3.5 0.00 0.00 0.00 83 1007.6
20260509053522 51 171 0.9 3.5 0.00 0.00 0.00 83 1007.6
20260509053051 51 171 0.9 3.5 0.00 0.00 0.00 82 1007.7
20260509052522 51 171 0.0 1.7 0.00 0.00 0.00 83 1007.6
20260509052021 51 0 0.0 1.7 0.00 0.00 0.00 82 1007.7
20260509051538 51 171 0.9 1.7 0.00 0.00 0.00 82 1007.7
20260509051021 51 171 0.9 1.7 0.00 0.00 0.00 82 1007.8
20260509050521 51 170 0.9 1.7 0.00 0.00 0.00 81 1007.9
20260509050037 52 170 0.0 2.6 0.00 0.00 0.00 81 1007.8
20260509045526 52 170 0.9 3.5 0.00 0.00 0.00 81 1007.9
20260509045022 52 171 0.9 3.5 0.00 0.00 0.00 81 1007.9
20260509044537 52 171 0.9 3.5 0.00 0.00 0.00 81 1007.9
20260509044025 52 171 1.7 3.5 0.00 0.00 0.00 80 1007.8
20260509043520 52 172 0.9 3.5 0.00 0.00 0.00 80 1007.8
20260509043045 53 172 1.7 4.3 0.00 0.00 0.00 79 1007.8
20260509042522 53 172 2.6 4.3 0.00 0.00 0.00 77 1007.8
20260509042022 53 158 3.5 4.3 0.00 0.00 0.00 76 1007.9
20260509041538 53 201 0.9 2.6 0.00 0.00 0.00 73 1007.9
20260509041021 54 0 0.0 0.0 0.00 0.00 0.00 73 1007.9
20260509040521 54 0 0.0 0.9 0.00 0.00 0.00 73 1007.8
20260509040055 55 0 0.0 2.6 0.00 0.00 0.00 73 1007.8
20260509035522 55 315 0.9 2.6 0.00 0.00 0.00 74 1007.9
20260509035022 55 0 0.0 0.0 0.00 0.00 0.00 73 1007.9
20260509034537 56 0 0.0 0.9 0.00 0.00 0.00 73 1007.8
20260509034021 56 0 0.0 1.7 0.00 0.00 0.00 73 1007.8
20260509033521 56 0 0.0 2.6 0.00 0.00 0.00 72 1007.7
20260509033054 56 0 0.9 2.6 0.00 0.00 0.00 71 1007.7
20260509032523 57 315 0.9 2.6 0.00 0.00 0.00 71 1007.7
20260509032021 57 0 0.0 0.0 0.00 0.00 0.00 71 1007.7
20260509031537 57 0 0.0 0.0 0.00 0.00 0.00 70 1007.7
20260509031022 58 0 0.0 0.0 0.00 0.00 0.00 68 1007.7
20260509030522 58 0 0.0 0.0 0.00 0.00 0.00 69 1007.6
20260509030039 58 0 0.0 2.6 0.00 0.00 0.00 68 1007.6
20260509025522 59 0 0.0 3.5 0.00 0.00 0.00 68 1007.5
20260509025021 59 88 1.7 3.5 0.00 0.00 0.00 69 1007.5
20260509024540 60 0 0.0 0.0 0.00 0.00 0.00 68 1007.4
20260509024025 60 0 0.0 0.0 0.00 0.00 0.00 66 1007.5
20260509023524 61 0 0.0 0.9 0.00 0.00 0.00 64 1007.4
20260509023037 62 0 0.0 0.9 0.00 0.00 0.00 62 1007.3
20260509022521 63 9 0.0 0.9 0.00 0.00 0.00 61 1007.3
20260509022021 63 0 0.0 0.0 0.00 0.00 0.00 58 1007.4
20260509021537 64 0 0.0 0.0 0.00 0.00 0.00 57 1007.3
20260509021023 65 0 0.0 0.9 0.00 0.00 0.00 54 1007.2
20260509020524 66 0 0.0 2.6 0.00 0.00 0.00 53 1007.1
20260509020037 66 0 0.0 3.5 0.00 0.00 0.00 52 1007.1
20260509015521 67 351 1.7 4.3 0.00 0.00 0.00 52 1007.0
20260509015023 67 333 1.7 4.3 0.00 0.00 0.00 51 1006.9
20260509014532 68 331 1.7 4.3 0.00 0.00 0.00 50 1006.7
20260509014022 68 9 1.7 3.5 0.00 0.00 0.00 50 1006.6
20260509013522 69 9 1.7 3.5 0.00 0.00 0.00 49 1006.5
20260509013038 69 10 1.7 3.5 0.00 0.00 0.00 48 1006.5
20260509012522 69 26 1.7 4.3 0.00 0.00 0.00 48 1006.5
20260509012022 70 27 1.7 4.3 0.00 0.00 0.00 48 1006.4
20260509011544 70 28 2.6 7.8 0.00 0.00 0.00 48 1006.4
20260509011022 71 24 1.7 7.8 0.00 0.00 0.00 47 1006.3
20260509010521 71 352 3.5 7.8 0.00 0.00 0.00 46 1006.3
20260509010039 71 21 3.5 7.0 0.00 0.00 0.00 47 1006.4
20260509005525 71 17 4.3 10.4 0.00 0.00 0.00 47 1006.3
20260509005022 72 19 3.5 10.4 0.00 0.00 0.00 47 1006.2
20260509004548 72 5 5.2 11.3 0.00 0.00 0.00 46 1006.1
20260509004021 72 28 4.3 12.2 0.00 0.00 0.00 46 1006.0
20260509003522 72 352 7.0 12.2 0.00 0.00 0.00 46 1005.9
20260509003040 73 351 5.2 12.2 0.00 0.00 0.00 48 1005.9
20260509002525 73 20 6.1 12.2 0.00 0.00 0.00 48 1005.8
20260509002022 73 32 7.8 12.2 0.00 0.00 0.00 47 1005.8
20260509001538 74 345 4.3 12.2 0.00 0.00 0.00 47 1005.7
20260509001021 74 53 6.1 13.9 0.00 0.00 0.00 46 1005.6
20260509000521 74 344 7.8 13.9 0.00 0.00 0.00 44 1005.6
20260509000037 75 331 6.1 13.0 0.00 0.00 0.00 44 1005.6
20260508235522 75 342 6.1 11.3 0.00 0.00 0.00 43 1005.5
20260508235023 76 5 7.0 13.0 0.00 0.00 0.00 43 1005.3
20260508234537 76 319 7.0 15.6 0.00 0.00 0.00 42 1005.3
20260508234022 76 294 7.8 15.6 0.00 0.00 0.00 42 1005.2
20260508233525 76 9 8.7 15.6 0.00 0.00 0.00 44 1005.1
20260508233038 76 5 7.8 19.1 0.00 0.00 0.00 46 1005.2
20260508232522 76 12 12.2 19.1 0.00 0.00 0.00 46 1005.2
20260508232022 77 30 8.7 18.2 0.00 0.00 0.00 45 1005.0
20260508231538 77 360 7.0 13.9 0.00 0.00 0.00 46 1005.0
20260508231022 77 297 7.8 13.0 0.00 0.00 0.00 45 1005.0